User: anonymous   Login
Location: Unspecified
(43.4354°N, 0.0000°E)
Time: 13:51:47
(UTC+00:00)
Language:

Explorer 7 - Orbit

View from above orbital plane
View from above orbital plane
View from above satellite
View from above satellite

Ground track
Ground track

The orbit data is extracted from the following two-line orbital elements,

1    22U 59009A   19175.76021600 -.00000157 +00000-0 +11621-4 0  9991
2    22 050.2855 344.7156 0140117 328.5996 030.6641 14.94877255416718
Epoch (UTC): 24 June 2019 18:14:42
Eccentricity: 0.0140117
inclination: 50.2855°
perigee height: 485 km
apogee height: 680 km
right ascension of ascending node: 344.7156°
argument of perigee: 328.5996°
revolutions per day: 14.94877255
mean anomaly at epoch: 30.6641°
orbit number at epoch: 41671

The dashed part of the orbit path shows where the satellite is in the earth's shadow,  

DLR